DECAYED

STARLINK-31893, 59792 (Decayed)

Orbit data source: Space-Track

STARLINK-31893, 59792 was a payload satellite owned by SpaceX/Seattle (US) in LEO that was launched on Sat, 18 May 2024 UTC via an FALCON 9 launch vehicle from the Air Force Eastern Test Range (AFETR). Payload-class satellites include a variety of spacecraft equipped with specific instruments for various scientific and technological missions. These include communications satellites like Starlink; space stations such as the ISS; scientific satellites like the Hubble; Earth observation satellites from companies like Planet Labs, Umbra, and HawkEye 360; GPS; miniature CubeSats for education and research; and military/defense satellites.

Not visible in the next 10 days
Identifier
59792, 2024-093L
Orbit
Decayed
Last TLE update
3 months ago
Origin
Manufacturer
SpaceX/Seattle
Mission
Decayed spacecraft
Bus & Motor
STARLINK V2M, Unknown motor
Mass
730 kg wet, ~700 kg dry
Launch date (UTC)
2024-05-18 (1 year ago)
Launch vehicle
FALCON 9
Launch site
Air Force Eastern Test Range (AFETR)
Object type
Payload
Rocket body
Debris
Shape & HBR
Unknown
Radar Cross Section
Large (>1 m²)

Expand to show TLE details & history

TLE from 3 months ago
0 STARLINK-31893
1 59792U 24093L   25097.27128652  .13721521  90207-5  67497-2 0  9996
2 59792  42.9804 281.2945 0010306 328.5126 206.2039 16.19900006 51560
Epoch: 2025-04-07T06:30Z
TLE epoch observation values (Epoch: 2025-04-07T06:30:39.155Z)
Latitude
3.59695°
Longitude
163.99646°
Altitude
225.293 km
Speed
7.77 km/s
True Right ascension
06h 29m 47s
True Declination
3° 34' 25"
Sunlit
Object was in daylight at epoch
Visualization orbit readout
Visualization observer readout
Orbital elements
Apogee altitude
228.651 km
Perigee altitude
215.047 km
Semi-major axis
6,599.986 km
Eccentricity
0.00103
Inclination
42.9804°
RAAN
281.2945°
Arg. of periapsis
328.5126°
True anomaly
206.15181°
Mean anomaly
206.2039°
Eccentric anomaly
206.17785°
Mean motion
4.04789 °/min
Orbital period
88.94 mins
BSTAR
0.0067497
Loading maneuver chart data...
Loading SW <> Apogee altitude chart data...
Loading historical data...
Loading historical data...
Loading historical data...
Loading historical data...
Loading historical data...
Loading historical data...
Loading historical data...
|